When you browse on this site, cookies collect data to enhance your experience and personalize the content and advertising you see.
Visit our Privacy Policy to learn more. By continuing to use the site, you agree to this use of cookies and data.
  • In United Kingdom
  • List of Countries
  • For 7 days
  • Water Temperature
  • Weather Map
  • Weather Widgets
  • user-avatar
    Login

    Hourly Weather Aberdeen

    Today, 14 December, Saturday

    Time Temperature Precipitation Wind Pressure Humidity
    00:00 0°C° 0 mm 3 mps 720 mmHg 90%
    01:00 0°C° 0 mm 3 mps 720 mmHg 90%
    02:00 0°C° 0 mm 3 mps 720 mmHg 90%
    03:00 -1°C° 0 mm 4 mps 720 mmHg 90%
    04:00 0°C° 0 mm 4 mps 720 mmHg 90%
    05:00 0°C° 0 mm 4 mps 721 mmHg 90%
    06:00 0°C° 0 mm 4 mps 721 mmHg 91%
    07:00 0°C° 0 mm 5 mps 721 mmHg 91%
    08:00 0°C° 0 mm 5 mps 721 mmHg 92%
    09:00 0°C° 0 mm 5 mps 722 mmHg 93%
    10:00 +1°C° 0 mm 6 mps 722 mmHg 89%
    11:00 0°C° 0 mm 7 mps 722 mmHg 86%
    12:00 +1°C° 0 mm 8 mps 722 mmHg 82%
    13:00 0°C° 0.1 mm 9 mps 722 mmHg 83%
    14:00 0°C° 0.1 mm 9 mps 722 mmHg 83%
    15:00 0°C° 0.1 mm 10 mps 722 mmHg 84%
    16:00 0°C° 0 mm 10 mps 722 mmHg 85%
    17:00 -2°C° 0 mm 10 mps 722 mmHg 85%
    18:00 -2°C° 0 mm 10 mps 722 mmHg 86%
    19:00 -2°C° 0.2 mm 10 mps 723 mmHg 87%
    20:00 -2°C° 0.2 mm 10 mps 723 mmHg 89%
    21:00 0°C° 0.2 mm 9 mps 723 mmHg 91%
    22:00 -1°C° 0.1 mm 8 mps 723 mmHg 91%
    23:00 -1°C° 0.1 mm 7 mps 723 mmHg 92%

    Tomorrow, 15 December, Sunday

    Time Temperature Precipitation Wind Pressure Humidity
    00:00 0°C° 0.1 mm 5 mps 723 mmHg 93%
    01:00 0°C° 0.1 mm 5 mps 724 mmHg 94%
    02:00 0°C° 0.1 mm 4 mps 724 mmHg 94%
    03:00 0°C° 0.1 mm 3 mps 724 mmHg 95%
    04:00 -1°C° 0 mm 4 mps 725 mmHg 92%
    05:00 -1°C° 0 mm 5 mps 725 mmHg 90%
    06:00 -1°C° 0 mm 5 mps 726 mmHg 87%
    07:00 -1°C° 0 mm 5 mps 727 mmHg 86%
    08:00 -1°C° 0 mm 5 mps 728 mmHg 85%
    09:00 -1°C° 0 mm 5 mps 729 mmHg 83%
    10:00 -1°C° 0 mm 5 mps 729 mmHg 80%
    11:00 0°C° 0 mm 5 mps 730 mmHg 77%
    12:00 0°C° 0 mm 5 mps 731 mmHg 75%
    13:00 0°C° 0 mm 4 mps 731 mmHg 77%
    14:00 0°C° 0 mm 3 mps 731 mmHg 79%
    15:00 0°C° 0 mm 3 mps 731 mmHg 82%
    16:00 0°C° 0.1 mm 3 mps 731 mmHg 84%
    17:00 0°C° 0.1 mm 4 mps 731 mmHg 85%
    18:00 0°C° 0.1 mm 4 mps 731 mmHg 87%
    19:00 0°C° 0.1 mm 4 mps 731 mmHg 89%
    20:00 +1°C° 0.1 mm 3 mps 731 mmHg 90%
    21:00 0°C° 0.1 mm 3 mps 731 mmHg 92%
    22:00 +1°C° 0 mm 2 mps 731 mmHg 91%
    23:00 +1°C° 0 mm 2 mps 731 mmHg 90%

    Day after tomorrow, 16 December, Monday

    Time Temperature Precipitation Wind Pressure Humidity
    00:00 +1°C° 0 mm 2 mps 731 mmHg 90%
    01:00 0°C° 0.2 mm 3 mps 731 mmHg 91%
    02:00 -1°C° 0.2 mm 4 mps 730 mmHg 92%
    03:00 0°C° 0.2 mm 5 mps 730 mmHg 93%
    04:00 0°C° 0.7 mm 5 mps 730 mmHg 93%
    05:00 0°C° 0.7 mm 4 mps 730 mmHg 92%
    06:00 +1°C° 0.7 mm 4 mps 730 mmHg 92%
    07:00 0°C° 0.1 mm 4 mps 730 mmHg 92%
    08:00 +1°C° 0.1 mm 3 mps 730 mmHg 93%
    09:00 0°C° 0.1 mm 3 mps 731 mmHg 94%
    10:00 +1°C° 0 mm 3 mps 731 mmHg 93%
    11:00 0°C° 0 mm 4 mps 731 mmHg 93%
    12:00 0°C° 0 mm 4 mps 732 mmHg 92%
    13:00 +1°C° 0.3 mm 3 mps 732 mmHg 94%
    14:00 +2°C° 0.3 mm 2 mps 732 mmHg 95%
    15:00 +2°C° 0.3 mm 2 mps 732 mmHg 96%
    16:00 +2°C° 1.2 mm 2 mps 732 mmHg 96%
    17:00 +1°C° 1.2 mm 3 mps 733 mmHg 96%
    18:00 +1°C° 1.2 mm 3 mps 733 mmHg 96%
    19:00 +1°C° 0.6 mm 3 mps 734 mmHg 95%
    20:00 -1°C° 0.6 mm 4 mps 734 mmHg 95%
    21:00 -1°C° 0.6 mm 4 mps 735 mmHg 94%
    22:00 -2°C° 0 mm 4 mps 735 mmHg 93%
    23:00 -2°C° 0 mm 4 mps 735 mmHg 91%

    17 December, Tuesday

    Time Temperature Precipitation Wind Pressure Humidity
    00:00 -3°C° 0 mm 4 mps 736 mmHg 89%
    01:00 -2°C° 0 mm 3 mps 736 mmHg 88%
    02:00 -2°C° 0 mm 3 mps 737 mmHg 87%
    03:00 -4°C° 0 mm 3 mps 737 mmHg 86%
    04:00 -4°C° 0 mm 3 mps 738 mmHg 85%
    05:00 -4°C° 0 mm 3 mps 738 mmHg 84%
    06:00 -4°C° 0 mm 3 mps 739 mmHg 83%
    07:00 -4°C° 0 mm 3 mps 739 mmHg 82%
    08:00 -4°C° 0 mm 3 mps 740 mmHg 82%
    09:00 -4°C° 0 mm 3 mps 740 mmHg 81%
    10:00 -2°C° 0 mm 3 mps 740 mmHg 82%
    11:00 -1°C° 0 mm 3 mps 741 mmHg 82%
    12:00 0°C° 0 mm 3 mps 741 mmHg 83%
    13:00 0°C° 0 mm 3 mps 741 mmHg 85%
    14:00 -1°C° 0 mm 3 mps 741 mmHg 86%
    15:00 -1°C° 0 mm 3 mps 741 mmHg 88%
    16:00 -1°C° 0 mm 3 mps 742 mmHg 88%
    17:00 -1°C° 0 mm 3 mps 742 mmHg 88%
    18:00 -1°C° 0 mm 3 mps 742 mmHg 89%
    19:00 -2°C° 0 mm 3 mps 743 mmHg 89%
    20:00 -2°C° 0 mm 2 mps 743 mmHg 89%
    21:00 -2°C° 0 mm 2 mps 744 mmHg 88%
    22:00 -2°C° 0 mm 2 mps 744 mmHg 88%
    23:00 -2°C° 0 mm 2 mps 744 mmHg 87%

    18 December, Wednesday

    Time Temperature Precipitation Wind Pressure Humidity
    00:00 -2°C° 0 mm 2 mps 745 mmHg 87%
    01:00 -2°C° 0 mm 2 mps 745 mmHg 87%
    02:00 -2°C° 0 mm 2 mps 745 mmHg 87%
    03:00 -2°C° 0 mm 2 mps 745 mmHg 87%
    04:00 -2°C° 0 mm 2 mps 745 mmHg 86%
    05:00 -2°C° 0 mm 2 mps 745 mmHg 86%
    06:00 -2°C° 0 mm 2 mps 746 mmHg 86%
    07:00 -2°C° 0 mm 2 mps 746 mmHg 86%
    08:00 0°C° 0 mm 1 mps 746 mmHg 86%
    09:00 0°C° 0 mm 1 mps 747 mmHg 86%
    10:00 0°C° 0 mm 1 mps 747 mmHg 86%
    11:00 +1°C° 0 mm 1 mps 747 mmHg 85%
    12:00 +2°C° 0 mm 1 mps 747 mmHg 85%
    13:00 +1°C° 0 mm 1 mps 747 mmHg 86%
    14:00 +1°C° 0 mm 1 mps 747 mmHg 88%
    15:00 +1°C° 0 mm 1 mps 747 mmHg 89%
    16:00 +1°C° 0 mm 1 mps 747 mmHg 90%
    17:00 +1°C° 0 mm 1 mps 747 mmHg 90%
    18:00 0°C° 0 mm 1 mps 747 mmHg 91%
    19:00 0°C° 0 mm 1 mps 747 mmHg 91%
    20:00 0°C° 0 mm 1 mps 747 mmHg 91%
    21:00 0°C° 0 mm 1 mps 748 mmHg 91%
    22:00 0°C° 0 mm 1 mps 747 mmHg 91%
    23:00 0°C° 0 mm 1 mps 747 mmHg 91%

    19 December, Thursday

    Time Temperature Precipitation Wind Pressure Humidity
    00:00 -1°C° 0 mm 2 mps 747 mmHg 91%
    01:00 -1°C° 0 mm 2 mps 746 mmHg 91%
    02:00 0°C° 0 mm 3 mps 746 mmHg 90%
    03:00 0°C° 0 mm 3 mps 746 mmHg 90%
    04:00 -1°C° 0 mm 4 mps 745 mmHg 89%
    05:00 0°C° 0 mm 4 mps 745 mmHg 89%
    06:00 0°C° 0 mm 4 mps 745 mmHg 88%
    07:00 +1°C° 0 mm 5 mps 745 mmHg 88%
    08:00 +1°C° 0 mm 6 mps 744 mmHg 88%
    09:00 +2°C° 0 mm 7 mps 744 mmHg 88%
    10:00 +2°C° 0 mm 7 mps 744 mmHg 86%
    11:00 +1°C° 0 mm 8 mps 743 mmHg 85%
    12:00 +2°C° 0 mm 8 mps 743 mmHg 83%
    13:00 +2°C° 0.1 mm 8 mps 742 mmHg 85%
    14:00 +2°C° 0.1 mm 9 mps 741 mmHg 87%
    15:00 +2°C° 0.1 mm 9 mps 741 mmHg 89%
    16:00 +2°C° 1.1 mm 9 mps 740 mmHg 91%
    17:00 +2°C° 1.1 mm 9 mps 740 mmHg 93%
    18:00 +2°C° 1.1 mm 9 mps 739 mmHg 95%
    19:00 +2°C° 1.5 mm 9 mps 739 mmHg 95%
    20:00 +4°C° 1.5 mm 8 mps 738 mmHg 96%
    21:00 +4°C° 1.5 mm 8 mps 738 mmHg 97%
    22:00 +4°C° 1.4 mm 7 mps 737 mmHg 97%
    23:00 +4°C° 1.4 mm 6 mps 737 mmHg 97%
    Show more